Estación meteorológica de Els Cortals - St. Hilari Sacalm (La Selva, Guilleries)

Consulta los datos en tiempo real de la estación meteorológica de Els Cortals - St. Hilari Sacalm





Hora UTC 08:40
Temperatura 11.2 ºC
Humedad 72.0 %
Presión 1008.1 hPa
Pluja 0.2 mm
Velocidad viento 3.2 km/h
Dirección viento E

Datos diarios 2026-05-09



Hora UTC (invierno +1h; verano +2h)
Temperatura (ºC) Humedad (%) Presión (hPa) Velocidad viento (km/h) Precipitación (mm)
Hora UTC Aire Humedad Presión Vel. Dir. Vel. Max Dir. Intent. máx 5 min.
00:05 7.9 74.0 1009.3 0.0 SE 0.0 0.0
00:10 7.7 75.0 1009.3 0.0 SE 0.0 0.0
00:15 7.6 75.0 1009.3 0.0 SSE 0.0 0.0
00:20 7.7 74.0 1009.3 0.0 SSE 0.0 0.0
00:25 7.9 73.0 1009.3 0.0 SSE 0.0 0.0
00:30 7.9 73.0 1009.2 0.0 SSE 0.0 0.0
00:35 7.9 73.0 1009.3 0.0 SSE 0.0 0.0
00:40 7.9 73.0 1009.2 0.0 SSE 0.0 0.0
00:45 7.8 73.0 1009.3 0.0 SSE 0.0 0.0
00:50 7.8 73.0 1009.3 6.4 WSW 9.7 0.0
00:55 8.0 72.0 1009.3 0.0 W 9.7 0.0
01:00 8.2 72.0 1009.2 0.0 W 8.0 0.0
01:05 8.1 72.0 1009.1 3.2 WSW 6.4 0.0
01:10 8.2 71.0 1009.0 9.7 W 11.3 0.0
01:15 8.3 71.0 1009.1 3.2 W 11.3 0.0
01:20 8.2 71.0 1009.1 3.2 W 8.0 0.0
01:25 8.2 70.0 1009.2 4.8 W 8.0 0.0
01:30 8.2 70.0 1009.0 1.6 W 8.0 0.0
01:35 8.3 70.0 1009.0 4.8 W 8.0 0.0
01:40 8.3 70.0 1008.9 3.2 W 8.0 0.0
01:45 8.3 70.0 1008.8 6.4 W 8.0 0.0
01:50 8.3 70.0 1008.9 0.0 W 8.0 0.0
01:55 8.3 69.0 1008.9 0.0 W 1.6 0.0
02:00 8.2 69.0 1008.9 0.0 W 3.2 0.0
02:05 8.3 69.0 1008.8 0.0 W 1.6 0.0
02:10 8.5 69.0 1008.7 0.0 W 1.6 0.0
02:15 8.6 69.0 1008.6 0.0 W 0.0 0.0
02:20 8.7 69.0 1008.6 0.0 W 0.0 0.0
02:25 8.6 69.0 1008.5 0.0 W 0.0 0.0
02:30 8.7 69.0 1008.3 0.0 W 0.0 0.0
02:35 8.6 69.0 1008.3 0.0 W 0.0 0.0
02:40 8.6 69.0 1008.2 0.0 W 0.0 0.0
02:45 8.6 69.0 1008.2 0.0 W 0.0 0.0
02:50 8.5 69.0 1008.2 0.0 W 1.6 0.0
02:55 8.3 69.0 1008.2 0.0 W 1.6 0.0
03:00 8.3 69.0 1008.1 0.0 W 6.4 0.0
03:05 8.3 69.0 1008.1 0.0 W 3.2 0.0
03:10 8.3 69.0 1008.1 0.0 W 0.0 0.0
03:15 8.3 69.0 1008.0 0.0 W 0.0 0.0
03:20 8.2 69.0 1008.2 0.0 W 0.0 0.0
03:25 8.2 70.0 1008.2 0.0 W 0.0 0.0
03:30 8.1 70.0 1008.1 0.0 W 0.0 0.0
03:35 7.9 70.0 1008.0 0.0 W 0.0 0.0
03:40 7.9 70.0 1008.2 0.0 W 0.0 0.0
03:45 7.9 70.0 1008.2 0.0 W 0.0 0.0
03:50 8.1 70.0 1008.3 0.0 W 0.0 0.0
03:55 8.1 70.0 1008.2 0.0 W 0.0 0.0
04:00 8.3 70.0 1008.1 0.0 W 0.0 0.0
04:05 8.3 70.0 1008.0 0.0 W 0.0 0.0
04:10 8.4 71.0 1008.0 0.0 W 0.0 0.0
04:15 8.3 71.0 1008.0 0.0 W 0.0 0.0
04:20 8.2 72.0 1008.0 0.0 W 0.0 0.0
04:25 8.2 72.0 1008.0 0.0 W 0.0 0.0
04:30 8.3 72.0 1008.0 0.0 W 0.0 0.0
04:35 8.3 72.0 1008.0 0.0 W 0.0 0.0
04:40 8.3 72.0 1008.0 0.0 W 0.0 0.0
04:45 8.2 72.0 1008.2 0.0 W 0.0 0.0
04:50 8.2 72.0 1008.1 0.0 W 0.0 0.0
04:55 8.3 72.0 1008.2 0.0 W 0.0 0.0
05:00 8.4 71.0 1008.3 0.0 W 0.0 0.0
05:05 8.5 71.0 1008.1 0.0 W 0.0 0.0
05:10 8.6 71.0 1008.2 0.0 W 0.0 0.0
05:15 8.7 71.0 1008.1 0.0 W 0.0 0.0
05:20 8.8 70.0 1008.4 0.0 W 0.0 0.0
05:25 8.9 71.0 1008.5 0.0 W 0.0 0.0
05:30 8.9 70.0 1008.4 0.0 W 0.0 0.0
05:35 8.9 70.0 1008.5 0.0 W 0.0 0.0
05:40 9.0 70.0 1008.4 0.0 W 0.0 0.0
05:45 9.1 70.0 1008.3 0.0 W 0.0 0.0
05:50 9.2 70.0 1008.3 0.0 W 0.0 0.0
05:55 9.3 70.0 1008.3 0.0 WNW 0.0 0.3
06:00 9.5 69.0 1008.3 0.0 WNW 3.2 0.0
06:05 9.7 69.0 1008.4 0.0 N 3.2 0.0
06:10 9.8 69.0 1008.3 0.0 N 1.6 0.0
06:15 9.8 69.0 1008.4 0.0 N 1.6 0.0
06:20 9.9 69.0 1008.4 0.0 N 1.6 0.0
06:25 10.0 68.0 1008.4 0.0 N 0.0 0.0
06:30 10.1 68.0 1008.4 0.0 N 0.0 0.0
06:35 10.2 68.0 1008.4 0.0 N 0.0 0.0
06:40 10.3 68.0 1008.5 0.0 N 0.0 0.0
06:45 10.3 68.0 1008.3 6.4 NE 8.0 0.0
06:50 10.3 68.0 1008.4 0.0 NE 8.0 0.0
06:55 10.4 68.0 1008.4 0.0 NE 6.4 0.0
07:00 10.6 68.0 1008.5 3.2 NE 6.4 0.0
07:05 10.7 68.0 1008.4 0.0 ENE 8.0 0.0
07:10 10.7 68.0 1008.4 0.0 ENE 8.0 0.0
07:15 10.8 68.0 1008.3 3.2 ENE 8.0 0.0
07:20 10.9 68.0 1008.3 1.6 ENE 8.0 0.0
07:25 11.2 68.0 1008.4 0.0 ENE 6.4 0.0
07:30 11.3 68.0 1008.3 1.6 ESE 8.0 0.0
07:35 11.3 68.0 1008.4 6.4 E 9.7 0.0
07:40 11.2 68.0 1008.5 6.4 E 9.7 0.0
07:45 11.2 69.0 1008.5 8.0 E 11.3 0.0
07:50 11.1 69.0 1008.3 0.0 E 11.3 0.0
07:55 11.1 69.0 1008.2 8.0 E 9.7 0.0
08:00 11.2 69.0 1008.2 6.4 NE 9.7 0.0
08:05 11.3 68.0 1008.1 6.4 ENE 11.3 0.0
08:10 11.2 69.0 1008.0 8.0 E 11.3 0.0
08:15 11.2 70.0 1008.3 3.2 SE 12.9 0.0
08:20 11.3 70.0 1007.9 8.0 E 11.3 0.0
08:25 11.3 70.0 1007.8 3.2 NE 11.3 0.0
08:30 11.3 71.0 1008.0 1.6 E 11.3 0.0
08:35 11.4 71.0 1008.0 0.0 E 11.3 0.0
08:40 11.2 72.0 1008.1 3.2 E 12.9 0.0
Máxima 11.4 75.0 1009.3 9.7 W 12.9 0.3
Mínima 7.6 68.0 1007.8
Total 0.3